Date String (YYYY-MM-DD hh:mm:ss) UTC,Instrument flags,Ambient pressure (hPa),Sample flow (lpm),Bypass flow (lpm),Sample temperature (°C),Ambient temperature (°C),ASC tube jacket temperature (°C),LED temperature (°C),Box temperature (°C),Sample RH (%),Span deviation,Mass concentration (μg/m³),Mass concentration (μg/m³),Mass concentration (μg/m³)
DateTimeUTC,F1_M11,P_M11,Q1_M11,Q2_M11,T1_M11,T2_M11,T3_M11,T4_M11,T5_M11,U1_M11,ZSPAN_M11,X2_M11,X0_M11,X1_M11
2022-11-08 18:00:00,,0822.4,4.99,0.00,24.4,23.5,00.0,33.1,26.4,17.6,-000.6,0005.43,0013.33,0004.43
2022-11-08 18:01:00,,0822.4,5.02,0.00,24.5,23.5,00.0,33.1,26.5,17.7,-000.4,0005.40,0013.46,0004.43
2022-11-08 18:02:00,,0822.4,5.00,0.00,24.5,23.5,00.0,33.1,26.5,18.1,-000.6,0005.38,0013.33,0004.43
2022-11-08 18:03:00,,0822.4,4.99,0.00,24.5,23.5,00.0,33.2,26.5,18.2,-000.8,0005.36,0013.78,0004.44
2022-11-08 18:04:00,,0822.4,4.99,0.00,24.5,23.6,00.0,33.2,26.5,18.2,-000.7,0005.34,0013.76,0004.44
2022-11-08 18:05:00,,0822.4,5.00,0.00,24.5,23.6,00.0,33.2,26.5,18.2,-000.7,0005.32,0013.55,0004.43
2022-11-08 18:06:00,,0822.4,5.00,0.00,24.6,23.6,00.0,33.2,26.6,18.4,-000.6,0005.29,0013.63,0004.41
2022-11-08 18:07:00,,0822.4,4.99,0.00,24.6,23.6,00.0,33.2,26.6,18.3,-000.6,0005.28,0013.30,0004.41
2022-11-08 18:08:00,,0822.4,5.00,0.00,24.6,23.7,00.0,33.3,26.6,18.4,-000.7,0005.27,0013.06,0004.41
2022-11-08 18:09:00,,0822.4,5.01,0.00,24.6,23.7,00.0,33.3,26.6,18.4,-000.3,0005.28,0013.36,0004.41
2022-11-08 18:10:00,,0822.4,4.99,0.00,24.7,23.7,00.0,33.3,26.7,18.1,0000.2,0005.32,0013.57,0004.40
2022-11-08 18:11:00,,0822.4,4.99,0.00,24.7,23.8,00.0,33.3,26.7,18.1,0000.6,0005.29,0013.71,0004.38
2022-11-08 18:12:00,,0822.4,4.99,0.00,24.7,23.8,00.0,33.3,26.7,17.9,0000.9,0005.31,0013.63,0004.37
2022-11-08 18:13:00,,0822.4,5.00,0.00,24.7,23.8,00.0,33.4,26.7,17.9,0001.2,0005.28,0013.59,0004.36
2022-11-08 18:14:00,,0822.3,5.00,0.00,24.8,23.8,00.0,33.4,26.8,18.2,0001.5,0005.33,0013.04,0004.34
2022-11-08 18:15:00,,0822.3,5.00,0.00,24.8,23.8,00.0,33.4,26.8,17.8,0001.4,0005.32,0013.04,0004.32
2022-11-08 18:16:00,,0822.3,4.99,0.00,24.8,23.8,00.0,33.4,26.8,16.8,0001.5,0005.27,0013.31,0004.25
2022-11-08 18:17:00,,0822.3,5.01,0.00,24.8,23.9,00.0,33.4,26.8,16.9,0001.7,0005.17,0012.64,0004.19
2022-11-08 18:18:00,,0822.2,5.00,0.00,24.9,23.9,00.0,33.5,26.8,17.0,0002.0,0005.11,0013.03,0004.13
2022-11-08 18:19:00,,0822.2,4.99,0.00,24.9,23.9,00.0,33.5,26.8,17.4,0001.6,0005.01,0013.06,0004.07
2022-11-08 18:20:00,,0822.2,5.02,0.00,24.9,24.0,00.0,33.5,26.9,16.7,0001.3,0004.94,0013.45,0004.02
2022-11-08 18:21:00,,0822.3,4.99,0.00,24.9,24.0,00.0,33.5,26.9,17.0,0001.5,0004.83,0013.37,0003.95
2022-11-08 18:22:00,,0822.2,4.99,0.00,25.0,24.0,00.0,33.6,26.9,17.0,0000.9,0004.78,0012.86,0003.91
2022-11-08 18:23:00,,0822.2,5.00,0.00,25.0,24.0,00.0,33.6,27.0,16.9,-000.2,0004.71,0012.34,0003.86
2022-11-08 18:24:00,,0822.2,5.00,0.00,25.0,24.1,00.0,33.6,27.0,16.8,0000.1,0004.65,0011.92,0003.81
2022-11-08 18:25:00,,0822.2,4.99,0.00,25.0,24.1,00.0,33.6,27.0,16.3,0000.2,0004.59,0011.95,0003.75
2022-11-08 18:26:00,,0822.2,5.01,0.00,25.1,24.1,00.0,33.7,27.0,16.0,0000.6,0004.51,0011.66,0003.69
2022-11-08 18:27:00,,0822.2,5.00,0.00,25.1,24.1,00.0,33.7,27.1,16.8,0000.7,0004.42,0011.31,0003.66
2022-11-08 18:28:00,,0822.3,4.98,0.00,25.1,24.2,00.0,33.7,27.1,16.9,0000.3,0004.41,0011.42,0003.67
2022-11-08 18:29:00,,0822.2,5.01,0.00,25.1,24.2,00.0,33.7,27.1,17.0,-000.3,0004.39,0010.90,0003.66
2022-11-08 18:30:00,,0822.2,5.00,0.00,25.1,24.2,00.0,33.7,27.1,17.2,0000.0,0004.43,0010.96,0003.67
2022-11-08 18:31:00,,0822.2,4.99,0.00,25.2,24.2,00.0,33.8,27.2,17.5,0000.2,0004.44,0010.66,0003.66
2022-11-08 18:32:00,,0822.2,5.00,0.00,25.2,24.3,00.0,33.8,27.2,17.3,0000.0,0004.43,0009.98,0003.66
2022-11-08 18:33:00,,0822.2,5.02,0.00,25.2,24.3,00.0,33.8,27.2,17.3,0000.5,0004.41,0009.89,0003.65
2022-11-08 18:34:00,,0822.2,5.00,0.00,25.3,24.3,00.0,33.8,27.3,17.2,0001.4,0004.42,0009.98,0003.65
2022-11-08 18:35:00,,0822.2,5.00,0.00,25.3,24.4,00.0,33.9,27.3,17.3,0001.1,0004.44,0010.22,0003.66
2022-11-08 18:36:00,,0822.1,5.02,0.00,25.3,24.4,00.0,33.9,27.3,17.3,0000.4,0004.45,0010.42,0003.68
2022-11-08 18:37:00,,0822.1,5.00,0.00,25.3,24.4,00.0,34.0,27.3,17.1,-000.3,0004.51,0011.20,0003.70
2022-11-08 18:38:00,,0822.1,4.99,0.00,25.3,24.4,00.0,34.0,27.3,17.1,-000.6,0004.59,0011.54,0003.73
2022-11-08 18:39:00,,0822.1,4.99,0.00,25.4,24.4,00.0,34.0,27.3,17.1,0000.2,0004.61,0011.30,0003.72
2022-11-08 18:40:00,,0822.1,5.01,0.00,25.4,24.4,00.0,34.0,27.3,17.0,0000.9,0004.66,0011.69,0003.74
2022-11-08 18:41:00,,0822.1,5.00,0.00,25.4,24.4,00.0,34.1,27.4,17.0,0001.7,0004.71,0012.04,0003.75
2022-11-08 18:42:00,,0822.1,4.98,0.00,25.4,24.5,00.0,34.1,27.4,17.0,0001.9,0004.68,0012.25,0003.77
2022-11-08 18:43:00,,0821.9,5.01,0.00,25.4,24.5,00.0,34.1,27.4,16.8,0002.1,0004.68,0012.24,0003.80
2022-11-08 18:44:00,,0821.9,5.00,0.00,25.5,24.5,00.0,34.1,27.4,16.6,0002.3,0004.71,0013.21,0003.84
2022-11-08 18:45:00,,0821.9,5.00,0.00,25.5,24.5,00.0,34.1,27.4,16.5,0002.0,0004.72,0013.77,0003.85
2022-11-08 18:46:00,,0822.0,4.99,0.00,25.5,24.5,00.0,34.1,27.5,16.5,0002.0,0004.71,0013.86,0003.85
2022-11-08 18:47:00,,0822.0,5.01,0.00,25.5,24.5,00.0,34.2,27.5,16.7,0002.5,0004.71,0013.18,0003.87
2022-11-08 18:48:00,,0822.0,4.99,0.00,25.5,24.6,00.0,34.2,27.5,17.0,0003.1,0004.75,0012.66,0003.89
2022-11-08 18:49:00,,0822.0,4.99,0.00,25.6,24.6,00.0,34.2,27.5,16.8,0003.1,0004.80,0012.84,0003.92
2022-11-08 18:50:00,,0822.0,5.02,0.00,25.6,24.6,00.0,34.2,27.5,16.9,0002.9,0004.88,0013.12,0003.98
2022-11-08 18:51:00,,0821.9,5.00,0.00,25.6,24.6,00.0,34.3,27.5,16.9,0002.9,0004.90,0012.83,0004.01
2022-11-08 18:52:00,,0822.0,4.99,0.00,25.6,24.6,00.0,34.3,27.6,17.1,0002.4,0004.89,0012.30,0004.04
2022-11-08 18:53:00,,0822.0,5.00,0.00,25.6,24.7,00.0,34.3,27.6,16.9,0002.5,0004.98,0011.86,0004.06
2022-11-08 18:54:00,,0822.4,5.01,0.00,25.6,24.7,00.0,34.3,27.6,16.7,0002.0,0005.02,0011.96,0004.06
2022-11-08 18:55:00,,0821.9,4.99,0.00,25.7,24.7,00.0,34.3,27.6,16.9,0001.3,0005.01,0010.89,0004.05
2022-11-08 18:56:00,,0821.8,4.99,0.00,25.7,24.7,00.0,34.4,27.6,16.8,0001.2,0005.04,0010.39,0004.08
2022-11-08 18:57:00,,0821.8,5.01,0.00,25.7,24.7,00.0,34.4,27.7,16.6,0001.4,0005.08,0010.31,0004.10
2022-11-08 18:58:00,,0821.8,4.99,0.00,25.7,24.7,00.0,34.4,27.7,16.5,0000.8,0005.06,0010.29,0004.10
2022-11-08 18:59:00,,0821.8,4.99,0.00,25.7,24.7,00.0,34.4,27.7,16.5,-000.3,0005.03,0010.15,0004.09
